User: anonymous   Login
Location: Bagnara
(41.0500°N, 14.7833°E)
Time: 07:29:32
(UTC+00:00)
Language:

SL-19 R/B - Orbit

View from above orbital plane
View from above orbital plane
View from above satellite
View from above satellite

Ground track
Ground track

The orbit data is extracted from the following two-line orbital elements,

1 28061U 03050B   21263.87014337 -.00000229  00000-0 -11830-3 0  9993
2 28061  99.4464 207.8251 0145933 197.7922 161.8099 13.97454996912612
Epoch (UTC): 20 September 2021 20:53:00
Eccentricity: 0.0145933
inclination: 99.4464°
perigee height: 796 km
apogee height: 1009 km
right ascension of ascending node: 207.8251°
argument of perigee: 197.7922°
revolutions per day: 13.97454996
mean anomaly at epoch: 161.8099°
orbit number at epoch: 91261

The dashed part of the orbit path shows where the satellite is in the earth's shadow,  

DLR